Tracking 19817 objects as of 18-Aug-2019
HD Live streaming from Space Station
objects crossing your sky now

COSMOS 2251 DEB

Track COSMOS 2251 DEB now!
10-day predictions


NORAD ID: 33889
Int'l Code: 1993-036CS
Perigee: 515.4 km
Apogee: 556.7 km
Inclination: 74.1 °
Period: 95.2 minutes
Semi major axis: 6907 km
RCS: 0.021 m2 (small)
Launch date: June 16, 1993
Source: Commonwealth of Independent States (former USSR) (CIS)
Launch site: PLESETSK MISSILE AND SPACE COMPLEX (PKMTR)

Note: This is SATELLITE DEBRIS
aabbcc
Your satellite tracking list
Your tracking list is empty




NASA's NSSDC Master Catalog

Two Line Element Set (TLE):
1 33889U 93036CS  19228.58116450 +.00002740 +00000-0 +15883-3 0  9995
2 33889 074.1047 087.9250 0029907 288.7449 071.0500 15.12386573565860
Source of the keplerian elements: AFSPC